Location: Bad Salzschlirf
(50.3750°N, 9.3000°E)
Time: 17:46:34
(UTC+02:00)

ISS - Pass Details

Date: 29 May 2020
Orbit: 417 x 420 km, 51.6° (Epoch: 26 May)

Event Time Altitude Azimuth Distance (km) Brightness Sun altitude
Rises 22:21:08 0° 287° (WNW) 2,367 1.2 -7.7°
Reaches altitude 10° 22:23:17 10° 280° (W) 1,501 -0.1 -7.9°
Maximum altitude 22:26:31 43° 208° (SSW) 595 -3.2 -8.3°
Enters shadow 22:29:24 12° 136° (SE) 1,374 -1.8 -8.6°
